Weather History for KPSC - March, 2012

Change the Weather History Date:

Tuesday, March 20, 2012

  Actual Average Record
Temperature  
Mean Temperature 49 °F 48 °F  
Max Temperature 55 °F 61 °F 75 °F (1999)
Min Temperature 43 °F 35 °F 23 °F (2010)
Degree Days  
Heating Degree Days 16 17  
Month to date heating degree days 378 404  
Since 1 July heating degree days 4248 4287  
Cooling Degree Days 0 0  
Month to date cooling degree days 0 0  
Year to date cooling degree days 0 0  
Moisture  
Dew Point 33 °F    
Average Humidity 55    
Maximum Humidity 71    
Minimum Humidity 38    
Precipitation  
Precipitation T in 0.03 in 0.25 in (1993)
Month to date precipitation 0.14 0.50  
Year to date precipitation 1.80 2.58  
Snow  
Snow 0.00 in - - ()
Snow Depth 0.00 in    
Sea Level Pressure  
Sea Level Pressure 29.80 in    
Wind  
Wind Speed 13 mph (SSW)    
Max Wind Speed 37 mph    
Max Gust Speed 45 mph    
Visibility 10 miles    
Events Rain    
T = Trace of Precipitation, MM = Missing Value Source: NWS Daily Summary

Daily Weather History Graph

Daily Weather History Graph

Search for Another Location

Airport or City:

Trip Planner

Search our weather history database for the weather conditions in past years. The results will help you decide how hot, cold, wet, or windy it might be!

Date:

Astronomy

Mar. 20, 2012 Rise Set
Actual Time 6:58 AM PDT 7:09 PM PDT
Civil Twilight 6:28 AM PDT 7:39 PM PDT
Nautical Twilight 5:53 AM PDT 8:15 PM PDT
Astronomical Twilight 5:17 AM PDT 8:51 PM PDT
Moon 5:47 AM PDT (3/20) 5:40 PM PDT (3/20)
Length of Visible Light 13h 11m
Length of Day
12h 11m
Waning Crescent, 3% of the Moon is Illuminated
Mar 20
Waning Crescent
Mar 22
New
Mar 30
First Quarter
Apr 6
Full
Apr 13
Last Quarter

Hourly Weather History & Observations

Time (PDT) Temp. Windchill Dew Point Humidity Pressure Visibility Wind Dir Wind Speed Gust Speed Precip Events Conditions
12:53 AM 46.0 °F 41.4 °F 27.0 °F 47% 29.77 in 10.0 mi ESE 9.2 mph - N/A   Overcast
1:53 AM 46.0 °F 42.5 °F 28.0 °F 50% 29.75 in 10.0 mi ESE 6.9 mph - N/A   Overcast
2:53 AM 46.9 °F - 33.1 °F 59% 29.73 in 10.0 mi SE 9.2 mph - 0.00 in   Overcast
3:25 AM 46.4 °F 39.5 °F 35.6 °F 66% 29.73 in 10.0 mi SSW 17.3 mph - 0.00 in Rain Light Rain
3:53 AM 46.0 °F 41.4 °F 36.0 °F 68% 29.73 in 10.0 mi South 9.2 mph - 0.00 in Rain Light Rain
4:53 AM 45.0 °F 38.9 °F 37.0 °F 74% 29.70 in 10.0 mi South 12.7 mph - 0.00 in   Overcast
7:53 AM 48.9 °F - 36.0 °F 61% 29.66 in 10.0 mi South 17.3 mph - N/A   Clear
8:53 AM 50.0 °F - 36.0 °F 59% 29.67 in 10.0 mi South 4.6 mph - N/A   Clear
9:53 AM 52.0 °F - 37.0 °F 57% 29.69 in 10.0 mi WSW 10.4 mph - N/A   Partly Cloudy
10:53 AM 53.1 °F - 37.9 °F 57% 29.70 in 10.0 mi SSW 18.4 mph 26.5 mph N/A   Clear
11:53 AM 55.0 °F - 37.9 °F 53% 29.73 in 10.0 mi SW 31.1 mph 40.3 mph N/A   Partly Cloudy
12:53 PM 54.0 °F - 35.1 °F 49% 29.74 in 10.0 mi SW 27.6 mph 40.3 mph N/A   Overcast
1:53 PM 53.1 °F - 34.0 °F 48% 29.77 in 10.0 mi SW 20.7 mph 31.1 mph N/A   Overcast
3:53 PM 53.1 °F - 30.9 °F 43% 29.83 in 10.0 mi WSW 24.2 mph 32.2 mph N/A   Overcast
4:53 PM 52.0 °F - 28.9 °F 41% 29.85 in 10.0 mi WSW 18.4 mph 25.3 mph N/A   Overcast
5:53 PM 51.1 °F - 27.0 °F 39% 29.87 in 10.0 mi West 23.0 mph 33.4 mph N/A   Widespread Dust
6:53 PM 50.0 °F - 26.1 °F 39% 29.89 in 10.0 mi West 19.6 mph 24.2 mph N/A   Overcast
7:53 PM 46.9 °F - 30.9 °F 54% 29.93 in 10.0 mi SW 8.1 mph - N/A   Overcast
8:53 PM 45.0 °F 37.4 °F 34.0 °F 65% 29.94 in 10.0 mi SW 18.4 mph 23.0 mph N/A   Clear
9:53 PM 45.0 °F 40.6 °F 35.1 °F 68% 29.96 in 10.0 mi SSW 8.1 mph - N/A   Overcast
10:53 PM 45.0 °F 40.1 °F 34.0 °F 65% 29.98 in 10.0 mi SW 9.2 mph - N/A   Overcast
11:53 PM 44.1 °F 38.1 °F 35.1 °F 71% 29.98 in 10.0 mi SSW 11.5 mph - N/A   Overcast